Temperature
17 16 16 16 16 16 15 15 15 15 15 15 14 14 14 14 13 13 13 13 13 12 12 12 12 12 12 12 12 12 12 12 12 11 11 11 11 11 11 10 10 10 10
16 16 16 16 16 15 15 15 15 14 14 14 14 14 14 13 13 13 13 13 12 12 12 12 12 12 12 12 11 11 11 11 11 11 11 11 11 10 10 10 10 10 10
16 16 16 15 15 15 15 15 14 14 14 14 14 14 13 13 13 13 13 12 12 12 12 12 12 12 11 11 11 11 11 11 11 11 11 10 10 10 10 10 9 9 9
15 15 15 15 15 15 15 14 14 14 14 14 14 13 13 13 13 12 12 12 12 12 12 11 11 11 11 11 11 11 11 11 11 10 10 10 10 9 9 9 9 9 9
15 15 15 15 14 14 14 14 14 14 14 13 13 13 13 13 12 12 12 12 12 12 11 11 11 11 11 11 11 10 10 10 10 10 10 10 9 9 9 9 9 9 8
14 14 14 14 14 14 14 14 13 13 13 13 13 13 12 12 12 12 12 12 12 11 11 11 11 11 11 10 10 10 10 10 10 10 9 9 9 9 9 9 8 8 8
14 14 14 14 13 13 13 13 13 13 13 12 12 12 12 12 12 12 12 12 11 11 11 11 11 11 10 10 10 10 10 9 9 9 9 9 9 9 9 8 8 8 8
14 14 13 13 13 13 13 13 13 13 12 12 12 12 12 12 12 12 11 11 11 11 11 10 10 10 10 10 10 10 9 9 9 9 9 9 8 8 8 8 8 8 8
13 13 13 13 13 13 12 12 12 12 12 12 12 11 11 11 11 11 11 11 11 10 10 10 10 10 10 10 10 9 9 9 9 9 9 8 8 8 8 8 8 7 7
13 13 13 12 12 12 12 12 12 11 11 11 11 11 11 11 11 11 10 10 10 10 10 10 10 10 10 9 9 9 9 9 9 9 8 8 8 8 8 8 8 7 7
13 13 12 12 12 12 12 11 11 11 11 11 11 10 10 10 10 10 10 10 10 10 10 9 9 9 9 9 9 9 8 8 8 8 8 8 8 8 8 8 7 7 7
12 12 12 12 11 11 11 11 11 10 10 10 10 10 10 10 10 10 10 9 9 9 9 9 9 9 9 8 8 8 8 8 8 7 7 8 7 7 7 7 7 7 7
12 12 11 11 11 11 10 10 10 10 9 9 9 9 9 9 9 9 9 9 9 9 9 8 8 8 8 8 8 8 7 7 7 7 7 7 7 7 7 7 7 6 6
11 11 11 10 10 10 10 10 9 9 9 9 8 9 9 9 9 9 9 9 8 8 8 8 8 7 7 7 7 7 7 7 7 7 7 6 6 6 6 6 6 6 6
11 10 10 10 10 9 9 9 9 9 9 8 8 8 8 8 8 8 8 8 8 8 7 7 7 7 7 6 6 6 6 6 6 6 6 6 6 6 6 6 6 6 5
10 10 10 9 9 9 8 8 8 8 8 8 8 8 8 8 8 7 7 7 7 7 7 6 6 6 6 6 6 6 6 6 5 5 5 5 5 5 5 5 5 5 5
9 9 9 9 9 8 8 8 8 7 7 7 7 7 7 7 7 7 7 7 6 6 6 6 5 5 5 5 5 5 5 5 5 5 5 4 4 4 4 4 4 4 4
9 9 9 8 8 8 7 7 7 7 7 7 7 6 6 6 6 6 6 6 6 5 5 5 5 5 5 5 4 4 4 4 4 4 4 4 4 4 4 4 4 4 4
8 8 8 8 7 7 7 7 7 6 6 6 6 6 6 6 5 5 5 5 5 5 4 4 4 4 4 4 4 4 4 4 3 3 3 3 3 3 3 3 3 3 3
8 7 7 7 7 7 6 6 6 6 6 5 5 5 5 5 5 5 4 4 4 4 4 4 4 4 4 4 3 3 3 3 3 3 3 2 2 2 3 3 3 3 3
7 7 7 7 6 6 6 6 6 5 5 5 5 5 4 4 4 4 4 3 3 3 3 3 3 3 3 3 3 3 2 2 2 2 2 2 2 2 2 2 2 2 2
6 6 6 6 6 5 5 5 5 5 5 4 4 4 4 4 3 3 3 3 3 3 3 2 2 2 2 2 2 2 2 2 2 2 2 2 2 2 1 1 1 1 1
5 5 5 5 5 5 5 4 4 4 4 4 4 3 3 3 3 3 2 2 2 2 2 2 2 2 2 2 2 2 2 2 2 1 1 1 1 1 1 1 1 1 1
5 5 5 4 4 4 4 4 4 3 3 3 3 3 3 2 2 2 2 2 2 1 1 1 1 1 1 1 1 1 1 1 1 1 1 1 1 1 1 0 0 0 0
4 4 4 4 4 3 3 3 3 3 3 3 2 2 2 2 2 1 1 1 1 1 1 1 0 0 0 0 0 0 0 0 0 0 0 0 0 0 -0 -0 -0 -0 -0
4 3 3 3 3 3 3 3 3 2 2 2 2 2 2 1 1 1 1 1 0 0 0 0 -0 -0 -0 -0 -0 -0 -0 -0 -0 -0 -0 -0 -1 -1 -1 -1 -1 -1 -1
Wind_Speed
5 5 5 5 5 5 5 5 5 4 4 4 4 4 4 4 3 3 4 3 3 3 2 3 3 3 2 2 1 1 1 1 2 1 1 2 2 2 2 3 4 5 5
4 4 5 5 5 5 5 5 5 5 5 4 4 3 3 3 3 3 4 3 3 3 3 2 3 2 2 2 1 2 2 2 2 2 1 1 1 3 3 2 2 4 5
2 3 4 4 5 5 5 4 5 5 5 4 4 4 4 4 4 3 3 3 3 3 3 2 2 2 2 2 2 2 2 2 1 2 1 1 1 1 2 1 1 1 3
2 3 4 4 4 4 4 4 4 4 4 5 4 4 4 3 3 3 3 3 3 3 3 3 2 2 2 2 2 2 2 1 1 2 1 1 1 1 1 1 0 1 1
2 2 3 3 2 3 3 3 4 4 4 4 4 4 4 4 3 3 3 3 3 3 3 3 3 3 2 1 1 1 1 1 1 2 2 1 1 1 2 1 2 1 1
1 1 1 2 2 2 3 3 3 3 3 3 4 5 4 4 4 4 3 4 4 4 3 4 4 4 3 2 2 2 2 2 2 2 2 2 2 2 2 2 2 1 1
1 1 1 1 2 2 3 3 3 3 3 4 4 4 4 5 6 6 5 3 4 4 4 4 3 4 4 3 3 3 2 2 2 2 3 3 3 3 3 3 2 2 3
2 2 1 1 1 2 2 3 3 3 3 4 4 4 4 5 6 6 5 4 4 4 5 4 4 3 4 3 3 2 2 2 3 2 3 3 2 3 4 4 4 3 2
2 2 2 1 1 1 2 2 3 3 3 3 3 4 4 4 6 5 5 3 3 3 3 3 3 4 4 4 3 3 3 2 2 2 2 2 2 2 2 2 2 2 2
2 2 2 2 1 2 3 2 2 2 2 3 3 3 3 4 5 6 6 3 3 3 2 2 3 3 4 5 4 4 4 3 2 2 2 2 2 2 4 4 3 3 2
1 1 2 2 3 3 2 2 1 1 2 3 3 2 3 4 5 7 6 4 4 3 2 2 2 3 4 5 4 3 5 3 2 3 3 2 2 2 2 3 3 3 3
1 2 2 2 2 2 2 1 1 1 2 2 2 2 2 3 4 6 7 6 3 3 3 2 2 3 3 4 3 3 3 2 1 2 2 2 2 2 2 2 3 3 4
1 1 2 2 1 1 1 1 1 1 1 1 2 2 1 1 2 4 6 6 4 2 2 2 3 3 3 3 3 3 2 1 1 2 3 3 2 2 2 1 2 2 3
1 2 2 1 1 1 1 1 1 1 1 1 1 1 1 1 1 1 2 3 3 2 1 2 3 3 2 2 2 2 2 2 1 1 1 1 1 1 1 1 1 1 1
2 2 1 1 1 1 1 0 1 1 2 2 1 1 1 1 1 2 2 2 2 2 2 2 2 1 1 1 0 1 1 1 1 1 1 1 1 1 1 1 1 1 2
1 1 1 1 2 2 1 1 3 2 2 2 2 1 0 1 1 1 2 3 3 4 4 3 2 2 2 2 2 1 1 1 1 1 1 1 1 1 1 1 1 2 2
2 0 0 1 2 2 2 2 1 2 2 1 1 2 2 2 2 2 2 4 4 5 3 2 2 2 1 1 1 1 1 1 1 1 1 1 1 1 1 1 1 2 2
1 1 0 1 1 1 1 1 2 2 1 0 1 2 3 3 3 3 4 4 2 2 1 2 2 2 1 1 1 1 1 0 0 1 1 1 1 1 1 1 1 2 3
1 0 1 1 1 1 1 1 1 1 1 2 2 2 2 3 4 3 4 2 2 1 1 1 1 1 1 1 1 1 1 1 1 1 1 1 1 1 1 2 2 3 2
1 2 2 1 1 1 1 1 1 1 1 2 2 2 2 3 2 2 1 1 1 1 1 0 0 1 1 1 1 1 1 1 1 1 1 1 2 1 2 2 2 2 2
1 1 2 1 1 1 1 1 1 1 2 2 2 2 3 2 2 2 2 1 1 1 1 1 1 1 1 1 1 0 0 1 1 1 1 1 1 1 1 2 2 2 2
1 1 1 1 1 1 1 1 1 2 2 3 2 2 3 2 2 2 1 1 1 0 0 1 1 0 0 0 1 1 1 1 1 1 1 1 1 2 2 2 2 2 2
1 1 1 1 1 2 2 1 1 2 2 2 2 2 2 2 2 2 2 1 1 0 1 1 0 0 1 1 1 0 1 1 1 1 1 2 2 2 2 2 3 3 3
1 1 1 1 1 1 1 1 1 2 2 2 2 2 2 2 1 2 1 1 1 0 1 1 1 1 2 2 2 2 1 1 2 1 2 2 2 2 2 2 2 3 3
1 1 1 1 1 1 1 1 1 1 2 2 1 1 1 1 1 1 1 1 1 0 0 1 1 1 1 2 2 2 3 3 2 2 2 2 2 3 3 3 3 3 3
1 1 1 1 1 1 1 1 1 1 1 1 1 1 1 1 1 1 1 1 1 0 0 1 1 1 2 1 2 3 4 4 4 3 2 2 2 2 3 2 3 3 3
Wind_Direction
187 189 189 189 187 184 182 182 178 177 175 185 194 199 195 196 200 193 196 204 211 210 207 206 216 219 221 229 226 222 231 194 224 266 159 150 146 139 135 161 178 164 157
186 187 188 186 187 187 188 185 181 182 184 191 193 201 200 198 199 198 206 201 200 207 218 220 226 212 208 222 220 225 227 218 197 221 228 151 155 168 164 189 185 161 163
183 187 185 189 189 193 191 188 188 184 186 190 194 201 202 198 197 201 204 202 201 205 207 210 227 211 217 228 219 225 232 231 176 181 208 195 183 167 157 186 181 158 177
179 197 197 196 193 194 188 186 189 186 184 190 196 195 194 191 191 200 207 208 207 209 205 197 198 193 211 221 223 226 221 203 184 166 179 190 187 185 137 150 204 232 222
189 204 201 192 193 192 186 191 194 193 195 194 193 193 195 191 194 195 212 218 213 216 210 200 199 195 208 205 223 228 209 184 178 180 187 195 191 160 191 204 209 229 236
183 191 184 208 193 190 193 195 199 195 196 200 201 197 196 198 194 195 212 221 219 214 217 215 201 186 194 223 234 217 195 188 196 195 202 200 206 192 189 206 193 188 254
168 166 180 220 197 196 203 198 203 201 199 212 214 200 195 192 192 197 214 224 217 214 220 222 221 198 177 174 213 221 235 227 205 196 200 214 204 198 190 203 206 211 235
175 181 188 215 210 201 207 220 213 206 208 216 221 213 204 196 192 199 210 224 226 216 216 213 201 193 188 180 188 187 211 221 215 218 211 219 209 198 191 196 206 219 246
189 192 168 176 207 197 221 235 229 220 216 221 223 217 209 195 187 191 192 224 233 230 220 200 186 188 185 174 175 190 206 236 234 216 220 204 216 203 179 157 183 193 247
194 174 156 170 197 217 224 230 250 233 222 230 236 227 204 184 183 185 189 208 224 231 218 200 201 191 186 179 181 191 208 224 214 219 236 250 235 222 202 188 189 199 220
194 167 160 185 209 213 210 223 239 238 233 234 234 222 196 193 187 189 193 198 212 217 214 213 210 206 193 199 203 209 216 221 212 210 219 227 228 220 213 212 203 200 208
182 170 190 203 219 204 182 204 216 225 240 238 240 231 209 195 184 199 203 210 213 206 222 211 191 186 192 196 204 233 245 231 202 202 213 220 220 225 226 224 223 215 207
182 200 214 202 184 175 163 177 203 200 212 255 246 242 242 196 187 195 207 213 216 209 220 190 177 185 194 199 212 225 244 217 193 210 223 227 221 216 208 226 250 240 229
228 228 203 181 140 102 134 156 176 194 202 223 253 259 265 212 148 167 203 213 216 211 176 157 165 163 164 188 193 211 207 198 185 207 241 254 255 222 208 204 232 250 239
243 228 188 144 138 132 102 91 176 160 159 174 218 241 213 234 257 166 159 182 187 188 153 131 122 117 129 140 167 215 197 176 191 193 206 247 279 269 266 248 221 231 234
273 244 150 147 145 144 143 62 51 85 100 119 123 116 56 36 30 151 163 159 156 147 136 144 155 162 178 190 198 207 194 211 220 207 210 212 234 251 270 281 235 218 235
314 312 111 144 152 156 164 163 132 47 65 100 140 126 121 104 94 106 146 139 135 134 125 147 162 174 184 184 181 184 204 211 180 164 223 255 264 268 266 272 265 251 246
335 8 85 153 153 175 184 187 179 171 165 140 171 153 141 135 124 115 121 119 125 137 158 167 180 183 188 181 164 158 162 140 131 187 212 251 261 260 266 265 258 262 258
2 14 126 113 120 138 144 173 177 168 150 130 104 112 130 136 125 115 120 114 139 154 170 178 183 173 166 158 151 145 155 185 200 207 229 238 249 256 257 259 256 273 273
43 44 59 77 88 108 128 136 127 124 123 122 120 114 115 115 121 126 133 132 128 125 118 139 144 131 137 138 138 140 167 221 236 242 248 248 250 246 253 260 257 256 256
69 104 99 101 101 91 101 121 117 107 105 103 105 107 125 132 134 127 132 128 125 128 126 110 85 83 80 85 88 90 237 261 260 264 267 263 258 262 267 272 278 264 263
73 105 107 108 103 97 99 92 92 100 104 101 96 85 99 93 96 105 122 121 109 105 85 92 93 111 109 137 171 189 214 258 286 291 287 286 278 274 272 270 274 277 276
80 99 94 89 99 101 94 86 95 100 106 111 118 115 119 119 124 131 137 133 117 80 45 56 76 40 4 18 17 70 220 259 267 279 285 281 281 278 275 272 274 280 279
72 96 98 90 89 105 112 99 93 96 101 110 116 125 135 140 134 133 129 134 130 107 75 64 60 26 11 11 6 4 4 351 341 313 283 277 282 275 270 274 274 276 277
77 87 85 88 103 111 118 113 104 102 104 109 116 121 128 129 130 135 138 126 129 131 101 74 68 10 354 355 353 352 339 332 332 328 300 275 273 276 270 267 270 278 282
68 80 86 82 90 101 110 111 106 103 105 107 110 113 111 113 127 146 152 136 131 123 59 24 17 353 344 358 349 344 336 325 317 314 317 280 269 272 277 272 272 270 276
Height
1497 1499 1501 1502 1504 1505 1506 1508 1509 1510 1511 1512 1513 1514 1515 1516 1516 1517 1517 1518 1518 1518 1519 1519 1519 1520 1520 1520 1521 1521 1521 1522 1521 1521 1522 1522 1522 1521 1521 1521 1521 1520 1520
1494 1496 1498 1499 1501 1502 1503 1504 1506 1507 1508 1509 1510 1511 1511 1512 1513 1514 1514 1515 1515 1515 1515 1516 1516 1516 1517 1517 1518 1518 1518 1518 1519 1518 1519 1519 1519 1519 1518 1519 1518 1518 1518
1491 1493 1494 1496 1497 1498 1500 1501 1502 1504 1505 1506 1506 1507 1508 1509 1509 1510 1511 1511 1512 1512 1512 1513 1513 1513 1513 1514 1514 1514 1515 1515 1515 1516 1516 1516 1516 1516 1516 1516 1516 1516 1516
1489 1490 1492 1493 1494 1495 1496 1497 1499 1500 1501 1502 1503 1504 1504 1505 1506 1506 1507 1508 1508 1509 1509 1510 1510 1511 1511 1510 1511 1511 1512 1512 1512 1512 1512 1513 1513 1513 1513 1513 1513 1514 1514
1486 1487 1489 1490 1491 1492 1493 1494 1495 1496 1497 1498 1499 1500 1501 1501 1502 1503 1503 1504 1504 1505 1506 1506 1507 1507 1508 1508 1508 1508 1508 1508 1509 1509 1509 1509 1509 1510 1510 1510 1511 1511 1511
1483 1484 1485 1486 1487 1488 1489 1490 1491 1492 1493 1494 1495 1496 1496 1497 1498 1499 1500 1500 1501 1501 1502 1503 1503 1504 1504 1505 1505 1505 1505 1505 1505 1505 1505 1506 1506 1506 1507 1507 1508 1508 1508
1480 1481 1482 1483 1484 1484 1485 1486 1487 1488 1489 1490 1491 1492 1492 1493 1494 1495 1496 1496 1497 1498 1498 1499 1499 1500 1500 1501 1501 1501 1501 1502 1502 1502 1502 1502 1502 1503 1503 1504 1504 1505 1505
1478 1479 1479 1480 1480 1481 1481 1482 1483 1484 1485 1485 1486 1487 1488 1488 1489 1490 1491 1492 1493 1494 1494 1495 1495 1496 1496 1497 1497 1497 1498 1498 1498 1498 1499 1499 1500 1500 1501 1501 1501 1502 1502
1475 1476 1476 1476 1476 1477 1478 1478 1479 1480 1480 1481 1482 1483 1484 1484 1485 1486 1487 1488 1489 1489 1490 1491 1492 1492 1492 1493 1493 1494 1494 1494 1494 1495 1495 1496 1496 1497 1497 1498 1498 1498 1498
1472 1473 1473 1473 1473 1474 1474 1475 1475 1476 1476 1477 1478 1479 1480 1480 1481 1482 1483 1484 1484 1485 1486 1487 1488 1488 1488 1489 1489 1489 1490 1490 1491 1491 1491 1492 1492 1493 1493 1494 1494 1494 1494
1470 1470 1470 1470 1470 1471 1471 1471 1472 1472 1473 1473 1474 1475 1475 1476 1476 1477 1478 1479 1479 1480 1481 1482 1483 1484 1484 1485 1485 1486 1486 1487 1487 1487 1488 1488 1488 1488 1489 1490 1490 1490 1490
1467 1467 1467 1467 1468 1467 1468 1468 1468 1469 1469 1470 1470 1471 1471 1472 1472 1473 1474 1474 1475 1476 1476 1477 1478 1479 1480 1480 1481 1482 1483 1483 1483 1484 1484 1484 1484 1484 1485 1485 1486 1486 1486
1464 1464 1464 1464 1464 1464 1464 1464 1465 1465 1466 1466 1467 1467 1468 1468 1469 1469 1470 1470 1471 1471 1472 1473 1474 1475 1476 1476 1477 1478 1479 1479 1479 1480 1480 1480 1481 1481 1481 1482 1482 1482 1482
1461 1461 1461 1461 1461 1462 1462 1462 1462 1462 1462 1463 1463 1464 1464 1465 1465 1465 1465 1466 1467 1467 1468 1469 1470 1471 1472 1472 1473 1474 1475 1475 1475 1476 1476 1477 1477 1477 1477 1477 1477 1478 1477
1458 1459 1459 1458 1459 1459 1459 1459 1459 1459 1459 1460 1460 1460 1460 1460 1461 1461 1462 1462 1462 1463 1464 1465 1466 1467 1468 1468 1469 1470 1471 1472 1472 1472 1473 1473 1473 1473 1473 1473 1473 1474 1474
1456 1456 1456 1456 1456 1456 1456 1456 1456 1457 1457 1457 1457 1458 1457 1458 1458 1458 1459 1459 1460 1460 1461 1461 1462 1463 1464 1465 1466 1466 1467 1468 1468 1468 1469 1469 1469 1469 1468 1469 1469 1469 1469
1453 1453 1453 1453 1453 1453 1453 1453 1453 1454 1454 1454 1454 1454 1454 1454 1454 1455 1455 1456 1457 1458 1458 1459 1459 1460 1461 1462 1463 1463 1464 1464 1465 1465 1465 1465 1465 1465 1465 1465 1465 1465 1465
1450 1450 1450 1450 1450 1450 1450 1451 1451 1450 1450 1450 1451 1451 1451 1451 1452 1452 1453 1454 1454 1455 1455 1456 1457 1458 1458 1459 1460 1460 1461 1461 1461 1461 1462 1462 1462 1462 1462 1462 1462 1461 1461
1447 1447 1447 1447 1448 1448 1448 1448 1448 1448 1448 1448 1448 1448 1449 1449 1449 1450 1450 1450 1451 1452 1453 1454 1454 1455 1456 1456 1457 1457 1458 1458 1458 1458 1458 1458 1458 1458 1458 1458 1458 1457 1457
1445 1445 1445 1445 1445 1446 1446 1446 1446 1446 1446 1446 1446 1446 1447 1447 1447 1447 1447 1448 1449 1449 1450 1451 1452 1452 1453 1453 1454 1454 1454 1454 1455 1455 1455 1455 1455 1454 1454 1454 1454 1454 1453
1443 1443 1443 1443 1443 1443 1444 1444 1444 1444 1444 1445 1445 1445 1445 1445 1445 1445 1446 1446 1447 1447 1448 1448 1449 1450 1450 1450 1451 1451 1451 1451 1451 1451 1451 1451 1451 1451 1451 1450 1450 1450 1450
1441 1441 1441 1441 1441 1442 1442 1443 1442 1443 1443 1443 1443 1443 1444 1444 1444 1444 1445 1445 1445 1445 1446 1446 1447 1447 1447 1447 1447 1447 1447 1447 1447 1448 1448 1448 1447 1447 1447 1447 1446 1446 1446
1439 1439 1439 1440 1440 1440 1441 1441 1441 1441 1441 1442 1442 1442 1442 1442 1443 1443 1443 1443 1443 1443 1443 1444 1444 1444 1444 1444 1444 1444 1444 1444 1444 1444 1444 1444 1443 1443 1443 1443 1442 1442 1441
1437 1438 1438 1438 1438 1438 1439 1439 1439 1440 1440 1440 1441 1441 1441 1441 1441 1441 1441 1441 1441 1441 1441 1441 1441 1441 1441 1441 1441 1440 1440 1440 1440 1440 1440 1439 1439 1439 1438 1438 1438 1438 1437
1436 1436 1436 1436 1437 1437 1437 1437 1438 1438 1438 1439 1439 1439 1439 1439 1439 1439 1439 1439 1439 1439 1439 1439 1438 1438 1438 1437 1437 1437 1436 1436 1436 1435 1435 1435 1435 1434 1434 1434 1433 1433 1433
1434 1434 1435 1435 1435 1435 1435 1435 1435 1436 1436 1437 1437 1437 1437 1437 1437 1437 1436 1436 1436 1436 1436 1435 1435 1435 1434 1434 1433 1433 1432 1431 1431 1431 1431 1430 1430 1430 1430 1429 1429 1429 1429